Find Superbird A

NORAD ID: 20040 Int'l Des: 1989-041 Owner: SCC Country: J operational
HEOCIRCULAR

实时位置

正在加载3D地球...

关于 Superbird A

正在加载描述...

即将过境

Passes for default location (London). Set your location on the main map for personalized predictions.

高度历史

Loading altitude history...

两行轨道根数

1 20040U 89041A 26135.08264895 -.00000041 00000-0 00000-0 0 9993
2 20040 12.2156 332.5409 0004691 78.5225 107.9969 0.99744045134135
Epoch: May 15, 2026 • Age: 21 hours

当前状态

高度 35925.0 km
速度 3.07 km/s
星下点 7.58°N, 104.49°W
发射日期 Jun 5, 1989
运行时间 36.9 years
类型 other

技术详情

分类 Payload
质量 2489.00 kg
干质量 1220.00 kg
总质量 2489.00 kg
长度 2.40 m
直径 2.20 m
跨度 20.30 m
形状 Box + 2 Pan
制造商 FORDA
平台类型 FS-1300
阶段状态 In Orbit
所有者/国家 SCC/J

Most Searched